Satellite: NO-44
Catalog number: 26931
Epoch time:      10063.68260559
Element set:     401
Inclination:      067.0507 deg
RA of node:       113.2244 deg
Eccentricity:    0.0006591
Arg of perigee:   263.8515 deg
Mean anomaly:     096.1821 deg
Mean motion:   14.29584987 rev/day
Decay rate:      -1.56e-06 rev/day^2
Epoch rev:           43981
Checksum:              310

Satellite: SO-50
Catalog number: 27607
Epoch time:      10063.21394762
Element set:     117
Inclination:      064.5603 deg
RA of node:       315.3558 deg
Eccentricity:    0.0037631
Arg of perigee:   125.8138 deg
Mean anomaly:     234.6479 deg
Mean motion:   14.71505981 rev/day
Decay rate:        3.7e-07 rev/day^2
Epoch rev:           38693
Checksum:              308

Satellite: CO-55
Catalog number: 27844
Epoch time:      10063.65117429
Element set:     793
Inclination:      098.7134 deg
RA of node:       074.1190 deg
Eccentricity:    0.0010745
Arg of perigee:   110.6220 deg
Mean anomaly:     249.6104 deg
Mean motion:   14.20688081 rev/day
Decay rate:        4.2e-07 rev/day^2
Epoch rev:           34624
Checksum:              282

Satellite: CO-57
Catalog number: 27848
Epoch time:      10063.52469558
Element set:     745
Inclination:      098.7171 deg
RA of node:       073.0713 deg
Eccentricity:    0.0010204
Arg of perigee:   113.4976 deg
Mean anomaly:     246.7261 deg
Mean motion:   14.20483520 rev/day
Decay rate:        4.9e-07 rev/day^2
Epoch rev:           34618
Checksum:              306

Satellite: AO-51
Catalog number: 28375
Epoch time:      10063.55379522
Element set:     618
Inclination:      098.0576 deg
RA of node:       063.0306 deg
Eccentricity:    0.0085137
Arg of perigee:   054.8113 deg
Mean anomaly:     306.1015 deg
Mean motion:   14.40672092 rev/day
Decay rate:        4.3e-07 rev/day^2
Epoch rev:           29844
Checksum:              289

Satellite: GENESAT1
Catalog number: 29655
Epoch time:      10063.17918662
Element set:     964
Inclination:      040.0222 deg
RA of node:       345.0571 deg
Eccentricity:    0.0007307
Arg of perigee:   283.5111 deg
Mean anomaly:     076.4891 deg
Mean motion:   15.76050162 rev/day
Decay rate:     4.5747e-04 rev/day^2
Epoch rev:           18333
Checksum:              290

Satellite: CP3
Catalog number: 31129
Epoch time:      10063.35011781
Element set:     519
Inclination:      097.9543 deg
RA of node:       108.4676 deg
Eccentricity:    0.0101857
Arg of perigee:   198.4705 deg
Mean anomaly:     161.2782 deg
Mean motion:   14.52217008 rev/day
Decay rate:       1.71e-06 rev/day^2
Epoch rev:           15264
Checksum:              288

Satellite: CO-65
Catalog number: 32785
Epoch time:      10063.35145705
Element set:     619
Inclination:      097.9081 deg
RA of node:       129.6758 deg
Eccentricity:    0.0013889
Arg of perigee:   266.6686 deg
Mean anomaly:     093.2929 deg
Mean motion:   14.81596830 rev/day
Decay rate:       4.17e-06 rev/day^2
Epoch rev:            9996
Checksum:              367

Satellite: KKS-1
Catalog number: 33493
Epoch time:      10063.73101852
Element set:     264
Inclination:      098.0723 deg
RA of node:       182.4187 deg
Eccentricity:    0.0021080
Arg of perigee:   117.5504 deg
Mean anomaly:     242.7862 deg
Mean motion:   14.80878280 rev/day
Decay rate:       5.36e-06 rev/day^2
Epoch rev:            6002
Checksum:              275

Satellite: SOHLA-1
Catalog number: 33496
Epoch time:      10063.23133007
Element set:      40
Inclination:      098.0475 deg
RA of node:       173.7282 deg
Eccentricity:    0.0006773
Arg of perigee:   167.5232 deg
Mean anomaly:     192.6141 deg
Mean motion:   14.69473492 rev/day
Decay rate:       1.26e-06 rev/day^2
Epoch rev:            5946
Checksum:              287

/EX
SB KEPS @ AMSAT  $ORB10064.W
Orbital Elements  10064.WEATHER

HR AMSAT ORBITAL ELEMENTS FOR WEATHER SATELLITES
FROM WA5QGD FORT WORTH,TX March 5, 2010
Send Subscribe/unsubscribe to KEPS at http://www.amsat.org/mailman/listinfo/kep
BID: ORB10064.W
TO ALL RADIO AMATEURS BT

Satellite: NOAA-10
Catalog number: 16969
Epoch time:      10063.35859479
Element set:     979
Inclination:      098.6683 deg
RA of node:       093.2583 deg
Eccentricity:    0.0012771
Arg of perigee:   154.1554 deg
Mean anomaly:     206.0272 deg
Mean motion:   14.27408268 rev/day
Decay rate:       -7.0e-08 rev/day^2
Epoch rev:           22062
Checksum:              323

Satellite: NOAA-11
Catalog number: 19531
Epoch time:      10063.29953373
Element set:     993
Inclination:      098.7696 deg
RA of node:       154.1107 deg
Eccentricity:    0.0012294
Arg of perigee:   086.6856 deg
Mean anomaly:     273.5742 deg
Mean motion:   14.14917483 rev/day
Decay rate:       2.71e-06 rev/day^2
Epoch rev:           10630
Checksum:              316

Satellite: NOAA-12
Catalog number: 21263
Epoch time:      10063.35562494
Element set:     477
Inclination:      098.7698 deg
RA of node:       076.5104 deg
Eccentricity:    0.0013253
Arg of perigee:   109.5726 deg
Mean anomaly:     250.6889 deg
Mean motion:   14.25619618 rev/day
Decay rate:        5.9e-07 rev/day^2
Epoch rev:           97746
Checksum:              336

